Time,TemperatureF,DewpointF,PressureIn,WindDirection,WindDirectionDegrees,WindSpeedMPH,WindSpeedGustMPH,Humidity,HourlyPrecipIn,Conditions,Clouds,dailyrainin,SoftwareType,DateUTC
2013-05-26 00:01:00,59.0,47.7,30.19,NW,317,0.0,0.0,66,0.00,CLR,,0.00,WeatherDisplay:10.37,2013-05-26 04:01:00,
2013-05-26 00:06:00,59.0,48.1,30.19,NW,317,0.0,0.0,67,0.00,CLR,,0.00,WeatherDisplay:10.37,2013-05-26 04:06:00,
2013-05-26 00:11:00,59.4,45.9,30.19,NW,317,0.0,0.0,61,0.00,CLR,,0.00,WeatherDisplay:10.37,2013-05-26 04:11:00,
2013-05-26 00:16:00,59.0,47.2,30.19,NW,317,0.0,0.0,65,0.00,CLR,,0.00,WeatherDisplay:10.37,2013-05-26 04:16:00,
2013-05-26 00:21:00,59.3,45.4,30.19,NW,317,0.0,0.0,60,0.00,CLR,,0.00,WeatherDisplay:10.37,2013-05-26 04:21:00,
2013-05-26 00:26:00,59.7,43.0,30.20,NE,36,3.5,3.5,54,0.00,CLR,,0.00,WeatherDisplay:10.37,2013-05-26 04:26:00,
2013-05-26 00:31:00,59.4,45.9,30.19,NW,317,0.0,0.0,61,0.00,CLR,,0.00,WeatherDisplay:10.37,2013-05-26 04:31:00,
2013-05-26 00:36:00,60.7,42.5,30.20,NNE,17,3.5,3.5,51,0.00,CLR,,0.00,WeatherDisplay:10.37,2013-05-26 04:36:00,
2013-05-26 00:41:00,61.0,42.7,30.20,NNE,17,3.5,3.5,51,0.00,CLR,,0.00,WeatherDisplay:10.37,2013-05-26 04:41:00,
2013-05-26 00:46:00,61.2,41.9,30.20,NNE,17,2.0,2.0,49,0.00,CLR,,0.00,WeatherDisplay:10.37,2013-05-26 04:46:00,
2013-05-26 00:51:00,61.3,41.4,30.20,NE,34,3.5,3.5,48,0.00,CLR,,0.00,WeatherDisplay:10.37,2013-05-26 04:51:00,
2013-05-26 00:56:00,61.3,42.5,30.20,NE,34,0.0,0.0,50,0.00,CLR,,0.00,WeatherDisplay:10.37,2013-05-26 04:56:00,
2013-05-26 01:01:00,61.3,41.4,30.20,NE,44,0.0,0.0,48,0.00,CLR,,0.00,WeatherDisplay:10.37,2013-05-26 05:01:00,
2013-05-26 01:06:00,61.3,42.5,30.20,NE,34,0.0,0.0,50,0.00,CLR,,0.00,WeatherDisplay:10.37,2013-05-26 05:06:00,
2013-05-26 01:11:00,61.3,42.5,30.20,NE,34,0.0,0.0,50,0.00,CLR,,0.00,WeatherDisplay:10.37,2013-05-26 05:11:00,
2013-05-26 01:16:00,61.3,42.5,30.20,NE,34,0.0,0.0,50,0.00,CLR,,0.00,WeatherDisplay:10.37,2013-05-26 05:16:00,
2013-05-26 01:21:00,61.3,42.5,30.20,NE,34,0.0,0.0,50,0.00,CLR,,0.00,WeatherDisplay:10.37,2013-05-26 05:21:00,
2013-05-26 01:26:00,60.8,42.5,30.20,NE,48,2.3,2.3,51,0.00,CLR,,0.00,WeatherDisplay:10.37,2013-05-26 05:26:00,
2013-05-26 01:31:00,61.3,42.5,30.20,NE,34,0.0,0.0,50,0.00,CLR,,0.00,WeatherDisplay:10.37,2013-05-26 05:31:00,
2013-05-26 01:36:00,60.5,43.8,30.20,NE,48,0.0,0.0,54,0.00,CLR,,0.00,WeatherDisplay:10.37,2013-05-26 05:36:00,
2013-05-26 01:41:00,60.3,45.5,30.20,NE,48,0.0,0.0,58,0.00,CLR,,0.00,WeatherDisplay:10.37,2013-05-26 05:41:00,
2013-05-26 01:46:00,59.9,43.2,30.20,NE,48,0.0,0.0,54,0.00,CLR,,0.00,WeatherDisplay:10.37,2013-05-26 05:46:00,
2013-05-26 01:51:00,61.3,42.5,30.20,NE,34,0.0,0.0,50,0.00,CLR,,0.00,WeatherDisplay:10.37,2013-05-26 05:51:00,
2013-05-26 01:56:00,59.5,41.3,30.20,NE,48,1.2,0.0,51,0.00,CLR,,0.00,WeatherDisplay:10.37,2013-05-26 05:56:00,
2013-05-26 02:01:00,59.6,42.4,30.19,NE,48,0.0,0.0,53,0.00,CLR,,0.00,WeatherDisplay:10.37,2013-05-26 06:01:00,
2013-05-26 02:06:00,59.6,42.4,30.19,NE,48,0.0,0.0,53,0.00,CLR,,0.00,WeatherDisplay:10.37,2013-05-26 06:06:00,
2013-05-26 02:11:00,59.6,42.4,30.19,NE,48,0.0,0.0,53,0.00,CLR,,0.00,WeatherDisplay:10.37,2013-05-26 06:11:00,
2013-05-26 02:16:00,59.6,42.4,30.19,NE,48,0.0,0.0,53,0.00,CLR,,0.00,WeatherDisplay:10.37,2013-05-26 06:16:00,
2013-05-26 02:21:00,59.6,42.4,30.19,NE,48,0.0,0.0,53,0.00,CLR,,0.00,WeatherDisplay:10.37,2013-05-26 06:21:00,
2013-05-26 02:26:00,59.2,42.1,30.20,ENE,71,2.3,2.3,53,0.00,CLR,,0.00,WeatherDisplay:10.37,2013-05-26 06:26:00,
2013-05-26 02:31:00,59.0,41.9,30.19,East,79,1.2,1.2,53,0.00,CLR,,0.00,WeatherDisplay:10.37,2013-05-26 06:31:00,
2013-05-26 02:36:00,59.6,42.4,30.19,NE,48,0.0,0.0,53,0.00,CLR,,0.00,WeatherDisplay:10.37,2013-05-26 06:36:00,
2013-05-26 02:41:00,59.6,42.4,30.19,NE,48,0.0,0.0,53,0.00,CLR,,0.00,WeatherDisplay:10.37,2013-05-26 06:41:00,
2013-05-26 02:46:00,59.0,42.4,30.20,East,92,0.0,0.0,54,0.00,CLR,,0.00,WeatherDisplay:10.37,2013-05-26 06:46:00,
2013-05-26 02:51:00,59.0,42.4,30.20,SE,136,0.0,0.0,54,0.00,CLR,,0.00,WeatherDisplay:10.37,2013-05-26 06:51:00,
2013-05-26 02:56:00,59.0,43.3,30.19,SE,136,2.0,2.0,56,0.00,CLR,,0.00,WeatherDisplay:10.37,2013-05-26 06:56:00,
2013-05-26 03:01:00,59.0,42.4,30.20,SE,136,0.0,0.0,54,0.00,CLR,,0.00,WeatherDisplay:10.37,2013-05-26 07:01:00,
2013-05-26 03:06:00,58.7,43.0,30.20,SE,136,3.5,3.5,56,0.00,CLR,,0.00,WeatherDisplay:10.37,2013-05-26 07:06:00,
2013-05-26 03:11:00,59.0,42.4,30.20,SE,136,0.0,0.0,54,0.00,CLR,,0.00,WeatherDisplay:10.37,2013-05-26 07:11:00,
2013-05-26 03:16:00,58.6,43.9,30.20,SE,136,0.0,0.0,58,0.00,CLR,,0.00,WeatherDisplay:10.37,2013-05-26 07:16:00,
2013-05-26 03:21:00,58.5,43.3,30.19,SE,136,0.0,0.0,57,0.00,CLR,,0.00,WeatherDisplay:10.37,2013-05-26 07:21:00,
2013-05-26 03:26:00,58.5,43.3,30.19,SE,136,0.0,0.0,57,0.00,CLR,,0.00,WeatherDisplay:10.37,2013-05-26 07:26:00,
2013-05-26 03:31:00,58.3,43.6,30.19,SE,136,0.0,0.0,58,0.00,CLR,,0.00,WeatherDisplay:10.37,2013-05-26 07:31:00,
2013-05-26 03:36:00,58.3,43.6,30.19,SE,136,0.0,0.0,58,0.00,CLR,,0.00,WeatherDisplay:10.37,2013-05-26 07:36:00,
2013-05-26 03:41:00,58.0,42.8,30.19,SE,136,0.0,0.0,57,0.00,CLR,,0.00,WeatherDisplay:10.37,2013-05-26 07:41:00,
2013-05-26 03:46:00,58.0,43.3,30.19,SE,136,0.0,0.0,58,0.00,CLR,,0.00,WeatherDisplay:10.37,2013-05-26 07:46:00,
2013-05-26 03:51:00,58.0,43.3,30.19,SE,136,0.0,0.0,58,0.00,CLR,,0.00,WeatherDisplay:10.37,2013-05-26 07:51:00,
2013-05-26 03:56:00,57.9,42.8,30.19,SE,135,0.0,0.0,57,0.00,CLR,,0.00,WeatherDisplay:10.37,2013-05-26 07:56:00,
2013-05-26 04:01:00,58.0,43.3,30.19,SE,136,0.0,0.0,58,0.00,CLR,,0.00,WeatherDisplay:10.37,2013-05-26 08:01:00,
2013-05-26 04:06:00,58.0,43.3,30.19,SE,136,0.0,0.0,58,0.00,CLR,,0.00,WeatherDisplay:10.37,2013-05-26 08:06:00,
2013-05-26 04:11:00,57.8,42.7,30.20,NE,44,0.0,0.0,57,0.00,CLR,,0.00,WeatherDisplay:10.37,2013-05-26 08:11:00,
2013-05-26 04:16:00,58.0,43.3,30.19,SE,136,0.0,0.0,58,0.00,CLR,,0.00,WeatherDisplay:10.37,2013-05-26 08:16:00,
2013-05-26 04:21:00,58.0,43.3,30.19,SE,136,0.0,0.0,58,0.00,CLR,,0.00,WeatherDisplay:10.37,2013-05-26 08:21:00,
2013-05-26 04:26:00,57.8,44.4,30.20,NE,44,0.0,0.0,61,0.00,CLR,,0.00,WeatherDisplay:10.37,2013-05-26 08:26:00,
2013-05-26 04:31:00,58.0,43.3,30.19,SE,136,0.0,0.0,58,0.00,CLR,,0.00,WeatherDisplay:10.37,2013-05-26 08:31:00,
2013-05-26 04:36:00,57.5,44.6,30.20,NE,44,0.0,0.0,62,0.00,CLR,,0.00,WeatherDisplay:10.37,2013-05-26 08:36:00,
2013-05-26 04:41:00,57.3,43.1,30.20,NE,44,0.0,0.0,59,0.00,CLR,,0.00,WeatherDisplay:10.37,2013-05-26 08:41:00,
2013-05-26 04:46:00,58.0,43.3,30.19,SE,136,0.0,0.0,58,0.00,CLR,,0.00,WeatherDisplay:10.37,2013-05-26 08:46:00,
2013-05-26 04:51:00,58.0,43.3,30.19,SE,136,0.0,0.0,58,0.00,CLR,,0.00,WeatherDisplay:10.37,2013-05-26 08:51:00,
2013-05-26 04:56:00,58.0,43.3,30.19,SE,136,0.0,0.0,58,0.00,CLR,,0.00,WeatherDisplay:10.37,2013-05-26 08:56:00,
2013-05-26 05:01:00,58.0,43.3,30.19,SE,136,0.0,0.0,58,0.00,CLR,,0.00,WeatherDisplay:10.37,2013-05-26 09:01:00,
2013-05-26 05:06:00,57.0,43.7,30.21,NE,44,0.0,0.0,61,0.00,CLR,,0.00,WeatherDisplay:10.37,2013-05-26 09:06:00,
2013-05-26 05:11:00,58.0,43.3,30.19,SE,136,0.0,0.0,58,0.00,CLR,,0.00,WeatherDisplay:10.37,2013-05-26 09:11:00,
2013-05-26 05:16:00,56.9,44.4,30.21,NE,44,0.0,0.0,63,0.00,CLR,,0.00,WeatherDisplay:10.37,2013-05-26 09:16:00,
2013-05-26 05:21:00,56.8,44.3,30.21,NE,44,0.0,0.0,63,0.00,CLR,,0.00,WeatherDisplay:10.37,2013-05-26 09:21:00,
2013-05-26 05:26:00,56.9,44.0,30.21,NE,44,0.0,0.0,62,0.00,CLR,,0.00,WeatherDisplay:10.37,2013-05-26 09:26:00,
2013-05-26 05:31:00,56.6,44.1,30.21,NE,44,1.2,0.0,63,0.00,CLR,,0.00,WeatherDisplay:10.37,2013-05-26 09:31:00,
2013-05-26 05:36:00,56.5,44.0,30.22,NE,44,0.0,0.0,63,0.00,CLR,,0.00,WeatherDisplay:10.37,2013-05-26 09:36:00,
2013-05-26 05:41:00,56.5,44.0,30.22,NE,44,0.0,0.0,63,0.00,CLR,,0.00,WeatherDisplay:10.37,2013-05-26 09:41:00,
2013-05-26 05:46:00,56.9,44.0,30.21,NE,44,0.0,0.0,62,0.00,CLR,,0.00,WeatherDisplay:10.37,2013-05-26 09:46:00,
2013-05-26 05:51:00,56.9,44.0,30.21,NE,44,0.0,0.0,62,0.00,CLR,,0.00,WeatherDisplay:10.37,2013-05-26 09:51:00,
2013-05-26 05:56:00,56.2,45.4,30.23,NE,44,0.0,0.0,67,0.00,CLR,,0.00,WeatherDisplay:10.37,2013-05-26 09:56:00,
2013-05-26 06:01:00,56.1,46.8,30.23,NE,44,0.0,0.0,71,0.00,CLR,,0.00,WeatherDisplay:10.37,2013-05-26 10:01:00,
2013-05-26 06:06:00,55.9,47.4,30.24,NE,44,0.0,0.0,73,0.00,CLR,,0.00,WeatherDisplay:10.37,2013-05-26 10:06:00,
2013-05-26 06:11:00,56.9,44.0,30.21,NE,44,0.0,0.0,62,0.00,CLR,,0.00,WeatherDisplay:10.37,2013-05-26 10:11:00,
2013-05-26 06:16:00,56.9,44.0,30.21,NE,44,0.0,0.0,62,0.00,CLR,,0.00,WeatherDisplay:10.37,2013-05-26 10:16:00,
2013-05-26 06:21:00,54.9,48.2,30.24,NE,44,0.0,0.0,78,0.01,RA,,0.01,WeatherDisplay:10.37,2013-05-26 10:21:00,
2013-05-26 06:26:00,54.5,48.1,30.24,NE,44,0.0,0.0,79,0.01,RA,,0.01,WeatherDisplay:10.37,2013-05-26 10:26:00,
2013-05-26 06:31:00,55.4,48.0,30.24,NE,44,0.0,0.0,76,0.01,CLR,,0.01,WeatherDisplay:10.37,2013-05-26 10:31:00,
2013-05-26 06:36:00,54.0,49.0,30.24,NE,44,0.0,0.0,83,0.01,CLR,,0.01,WeatherDisplay:10.37,2013-05-26 10:36:00,
2013-05-26 06:41:00,53.8,48.4,30.24,NE,44,0.0,0.0,82,0.01,CLR,,0.01,WeatherDisplay:10.37,2013-05-26 10:41:00,
2013-05-26 06:46:00,55.4,48.0,30.24,NE,44,0.0,0.0,76,0.01,CLR,,0.01,WeatherDisplay:10.37,2013-05-26 10:46:00,
2013-05-26 06:51:00,53.4,47.4,30.23,NE,44,0.0,0.0,80,0.01,CLR,,0.01,WeatherDisplay:10.37,2013-05-26 10:51:00,
2013-05-26 06:56:00,53.3,47.6,30.23,NE,44,0.0,0.0,81,0.01,CLR,,0.01,WeatherDisplay:10.37,2013-05-26 10:56:00,
2013-05-26 07:01:00,53.4,47.7,30.23,NE,44,0.0,0.0,81,0.01,CLR,,0.01,WeatherDisplay:10.37,2013-05-26 11:01:00,
2013-05-26 07:06:00,53.2,47.5,30.23,NE,44,0.0,0.0,81,0.01,CLR,,0.01,WeatherDisplay:10.37,2013-05-26 11:06:00,
2013-05-26 07:11:00,53.2,47.5,30.24,NE,44,0.0,0.0,81,0.01,CLR,,0.01,WeatherDisplay:10.37,2013-05-26 11:11:00,
2013-05-26 07:16:00,53.2,47.5,30.23,NE,44,0.0,0.0,81,0.01,CLR,,0.01,WeatherDisplay:10.37,2013-05-26 11:16:00,
2013-05-26 07:21:00,53.2,47.5,30.23,NE,44,0.0,0.0,81,0.00,CLR,,0.01,WeatherDisplay:10.37,2013-05-26 11:21:00,
2013-05-26 07:26:00,53.2,47.5,30.23,NE,44,0.0,0.0,81,0.00,CLR,,0.01,WeatherDisplay:10.37,2013-05-26 11:26:00,
2013-05-26 07:31:00,53.2,47.5,30.23,NE,44,0.0,0.0,81,0.00,CLR,,0.01,WeatherDisplay:10.37,2013-05-26 11:31:00,
2013-05-26 07:36:00,53.5,48.8,30.25,NE,44,0.0,0.0,84,0.00,CLR,,0.01,WeatherDisplay:10.37,2013-05-26 11:36:00,
2013-05-26 07:41:00,53.6,49.2,30.25,NE,44,0.0,0.0,85,0.00,CLR,,0.01,WeatherDisplay:10.37,2013-05-26 11:41:00,
2013-05-26 07:46:00,53.8,49.4,30.25,NE,44,0.0,0.0,85,0.00,CLR,,0.01,WeatherDisplay:10.37,2013-05-26 11:46:00,
2013-05-26 07:51:00,53.9,49.5,30.26,NE,44,0.0,0.0,85,0.00,CLR,,0.01,WeatherDisplay:10.37,2013-05-26 11:51:00,
2013-05-26 07:56:00,54.0,49.3,30.26,NE,44,0.0,0.0,84,0.00,CLR,,0.01,WeatherDisplay:10.37,2013-05-26 11:56:00,
2013-05-26 08:01:00,53.6,48.9,30.25,NE,44,0.0,0.0,84,0.00,CLR,,0.01,WeatherDisplay:10.37,2013-05-26 12:01:00,
2013-05-26 08:06:00,53.6,48.9,30.25,NE,44,0.0,0.0,84,0.00,CLR,,0.01,WeatherDisplay:10.37,2013-05-26 12:06:00,
2013-05-26 08:11:00,54.6,51.1,30.27,NE,47,0.0,0.0,88,0.00,CLR,,0.01,WeatherDisplay:10.37,2013-05-26 12:11:00,
2013-05-26 08:16:00,53.6,48.9,30.25,NE,44,0.0,0.0,84,0.00,CLR,,0.01,WeatherDisplay:10.37,2013-05-26 12:16:00,
2013-05-26 08:21:00,54.7,51.2,30.27,NE,47,0.0,0.0,88,0.00,CLR,,0.01,WeatherDisplay:10.37,2013-05-26 12:21:00,
2013-05-26 08:26:00,55.0,51.5,30.27,NE,47,0.0,0.0,88,0.00,CLR,,0.01,WeatherDisplay:10.37,2013-05-26 12:26:00,
2013-05-26 08:31:00,55.1,51.3,30.27,NE,47,1.2,0.0,87,0.00,CLR,,0.01,WeatherDisplay:10.37,2013-05-26 12:31:00,
2013-05-26 08:36:00,55.3,51.5,30.27,NE,47,0.0,0.0,87,0.00,CLR,,0.01,WeatherDisplay:10.37,2013-05-26 12:36:00,
2013-05-26 08:41:00,55.5,51.4,30.27,NE,46,0.0,0.0,86,0.00,CLR,,0.01,WeatherDisplay:10.37,2013-05-26 12:41:00,
2013-05-26 08:46:00,55.6,51.2,30.27,NE,41,0.0,0.0,85,0.00,CLR,,0.01,WeatherDisplay:10.37,2013-05-26 12:46:00,
2013-05-26 08:51:00,55.1,51.3,30.27,NE,47,0.0,0.0,87,0.00,CLR,,0.01,WeatherDisplay:10.37,2013-05-26 12:51:00,
2013-05-26 08:56:00,56.0,51.2,30.27,West,269,0.0,0.0,84,0.00,CLR,,0.01,WeatherDisplay:10.37,2013-05-26 12:56:00,
2013-05-26 09:01:00,56.3,51.2,30.27,West,269,0.0,0.0,83,0.00,CLR,,0.01,WeatherDisplay:10.37,2013-05-26 13:01:00,
2013-05-26 09:06:00,56.6,51.2,30.27,West,269,0.0,0.0,82,0.00,CLR,,0.01,WeatherDisplay:10.37,2013-05-26 13:06:00,
2013-05-26 09:11:00,56.9,50.5,30.27,West,269,0.0,0.0,79,0.00,CLR,,0.01,WeatherDisplay:10.37,2013-05-26 13:11:00,
2013-05-26 09:16:00,57.3,50.5,30.27,West,269,0.0,0.0,78,0.00,CLR,,0.01,WeatherDisplay:10.37,2013-05-26 13:16:00,
2013-05-26 09:21:00,57.0,50.5,30.27,West,269,0.0,0.0,79,0.00,CLR,,0.01,WeatherDisplay:10.37,2013-05-26 13:21:00,
2013-05-26 09:26:00,57.8,49.6,30.28,West,269,0.0,0.0,74,0.00,CLR,,0.01,WeatherDisplay:10.37,2013-05-26 13:26:00,
2013-05-26 09:31:00,58.1,49.9,30.28,West,269,0.0,0.0,74,0.00,CLR,,0.01,WeatherDisplay:10.37,2013-05-26 13:31:00,
2013-05-26 09:36:00,57.0,50.5,30.27,West,269,0.0,0.0,79,0.00,CLR,,0.01,WeatherDisplay:10.37,2013-05-26 13:36:00,
2013-05-26 09:41:00,58.4,50.5,30.28,West,269,0.0,0.0,75,0.00,CLR,,0.01,WeatherDisplay:10.37,2013-05-26 13:41:00,
2013-05-26 09:46:00,58.5,49.5,30.28,West,269,0.0,0.0,72,0.00,CLR,,0.01,WeatherDisplay:10.37,2013-05-26 13:46:00,
2013-05-26 09:51:00,57.0,50.5,30.27,West,269,0.0,0.0,79,0.00,CLR,,0.01,WeatherDisplay:10.37,2013-05-26 13:51:00,
2013-05-26 09:56:00,57.0,50.5,30.27,West,269,0.0,0.0,79,0.00,CLR,,0.01,WeatherDisplay:10.37,2013-05-26 13:56:00,
2013-05-26 10:01:00,59.0,51.8,30.28,West,269,0.0,0.0,77,0.00,CLR,,0.01,WeatherDisplay:10.37,2013-05-26 14:01:00,
2013-05-26 10:06:00,57.0,50.5,30.27,West,269,0.0,0.0,79,0.00,CLR,,0.01,WeatherDisplay:10.37,2013-05-26 14:06:00,
2013-05-26 10:11:00,57.0,50.5,30.27,West,269,0.0,0.0,79,0.00,CLR,,0.01,WeatherDisplay:10.37,2013-05-26 14:11:00,
2013-05-26 10:16:00,59.0,52.5,30.29,West,269,0.0,0.0,79,0.00,CLR,,0.01,WeatherDisplay:10.37,2013-05-26 14:16:00,
2013-05-26 10:21:00,59.0,52.5,30.29,West,269,0.0,0.0,79,0.00,CLR,,0.01,WeatherDisplay:10.37,2013-05-26 14:21:00,
2013-05-26 10:26:00,59.0,52.5,30.29,West,269,0.0,0.0,79,0.00,CLR,,0.01,WeatherDisplay:10.37,2013-05-26 14:26:00,
2013-05-26 10:31:00,59.0,52.5,30.29,West,269,0.0,0.0,79,0.00,CLR,,0.01,WeatherDisplay:10.37,2013-05-26 14:31:00,
2013-05-26 10:36:00,59.0,51.4,30.28,WSW,238,0.0,0.0,76,0.00,CLR,,0.01,WeatherDisplay:10.37,2013-05-26 14:36:00,
2013-05-26 10:41:00,59.0,51.4,30.28,WSW,238,0.0,0.0,76,0.00,CLR,,0.01,WeatherDisplay:10.37,2013-05-26 14:41:00,
2013-05-26 10:46:00,59.0,52.1,30.29,WSW,238,0.0,0.0,78,0.00,CLR,,0.01,WeatherDisplay:10.37,2013-05-26 14:46:00,
2013-05-26 10:51:00,59.0,51.8,30.28,WSW,238,0.0,0.0,77,0.00,CLR,,0.01,WeatherDisplay:10.37,2013-05-26 14:51:00,
2013-05-26 10:56:00,59.0,51.8,30.29,WSW,238,0.0,0.0,77,0.00,CLR,,0.01,WeatherDisplay:10.37,2013-05-26 14:56:00,
2013-05-26 11:01:00,59.2,52.0,30.28,WSW,238,0.0,0.0,77,0.00,CLR,,0.01,WeatherDisplay:10.37,2013-05-26 15:01:00,
2013-05-26 11:06:00,59.0,51.8,30.29,WSW,238,0.0,0.0,77,0.00,CLR,,0.01,WeatherDisplay:10.37,2013-05-26 15:06:00,
2013-05-26 11:11:00,59.9,53.0,30.28,SW,235,2.0,2.0,78,0.00,CLR,,0.01,WeatherDisplay:10.37,2013-05-26 15:11:00,
2013-05-26 11:16:00,60.3,52.3,30.27,WSW,244,3.5,3.5,75,0.00,CLR,,0.01,WeatherDisplay:10.37,2013-05-26 15:16:00,
2013-05-26 11:21:00,61.0,53.0,30.27,WSW,244,0.0,0.0,75,0.00,CLR,,0.01,WeatherDisplay:10.37,2013-05-26 15:21:00,
2013-05-26 11:26:00,61.8,53.1,30.27,South,180,4.0,4.0,73,0.00,CLR,,0.01,WeatherDisplay:10.37,2013-05-26 15:26:00,
2013-05-26 11:31:00,60.7,53.1,30.27,WSW,244,0.0,0.5,76,0.00,CLR,,0.01,WeatherDisplay:10.37,2013-05-26 15:31:00,
2013-05-26 11:36:00,63.0,50.2,30.27,NE,40,0.0,0.0,63,0.00,CLR,,0.01,WeatherDisplay:10.37,2013-05-26 15:36:00,
2013-05-26 11:41:00,63.5,50.2,30.27,NE,41,3.0,3.0,62,0.00,CLR,,0.01,WeatherDisplay:10.37,2013-05-26 15:41:00,
2013-05-26 11:46:00,64.1,49.9,30.27,SSE,167,1.2,0.0,60,0.00,CLR,,0.01,WeatherDisplay:10.37,2013-05-26 15:46:00,
2013-05-26 11:51:00,64.8,50.1,30.26,South,182,0.0,0.0,59,0.00,CLR,,0.01,WeatherDisplay:10.37,2013-05-26 15:51:00,
2013-05-26 11:56:00,60.7,53.1,30.27,WSW,244,0.0,0.5,76,0.00,CLR,,0.01,WeatherDisplay:10.37,2013-05-26 15:56:00,
2013-05-26 12:01:00,65.3,49.7,30.27,ESE,107,3.5,3.5,57,0.00,CLR,,0.01,WeatherDisplay:10.37,2013-05-26 16:01:00,
2013-05-26 12:06:00,65.7,49.6,30.27,SE,126,0.0,0.0,56,0.00,CLR,,0.01,WeatherDisplay:10.37,2013-05-26 16:06:00,
2013-05-26 12:11:00,66.3,52.0,30.26,South,184,4.0,4.0,60,0.00,CLR,,0.01,WeatherDisplay:10.37,2013-05-26 16:11:00,
2013-05-26 12:16:00,66.8,52.9,30.26,SSE,155,1.2,0.0,61,0.00,CLR,,0.01,WeatherDisplay:10.37,2013-05-26 16:16:00,
2013-05-26 12:21:00,60.7,53.1,30.27,WSW,244,0.0,0.5,76,0.00,CLR,,0.01,WeatherDisplay:10.37,2013-05-26 16:21:00,
2013-05-26 12:26:00,60.7,53.1,30.27,WSW,244,0.0,0.5,76,0.00,CLR,,0.01,WeatherDisplay:10.37,2013-05-26 16:26:00,
2013-05-26 12:31:00,60.7,53.1,30.27,WSW,244,0.0,0.5,76,0.00,CLR,,0.01,WeatherDisplay:10.37,2013-05-26 16:31:00,
2013-05-26 12:36:00,67.4,50.2,30.26,West,273,0.0,0.0,54,0.00,CLR,,0.01,WeatherDisplay:10.37,2013-05-26 16:36:00,
2013-05-26 12:41:00,67.4,50.2,30.26,West,273,0.0,0.0,54,0.00,CLR,,0.01,WeatherDisplay:10.37,2013-05-26 16:41:00,
2013-05-26 12:46:00,67.6,50.9,30.25,SW,234,6.0,6.0,55,0.00,CLR,,0.01,WeatherDisplay:10.37,2013-05-26 16:46:00,
2013-05-26 12:51:00,68.3,51.0,30.25,South,191,4.6,4.6,54,0.00,CLR,,0.01,WeatherDisplay:10.37,2013-05-26 16:51:00,
2013-05-26 12:56:00,68.7,50.9,30.25,South,185,0.0,0.0,53,0.00,CLR,,0.01,WeatherDisplay:10.37,2013-05-26 16:56:00,
2013-05-26 13:01:00,67.4,50.2,30.26,West,273,0.0,0.0,54,0.00,CLR,,0.01,WeatherDisplay:10.37,2013-05-26 17:01:00,
2013-05-26 13:06:00,68.7,49.8,30.26,North,360,4.0,4.0,51,0.00,CLR,,0.01,WeatherDisplay:10.37,2013-05-26 17:06:00,
2013-05-26 13:11:00,68.6,51.8,30.25,NNW,339,2.3,2.3,55,0.00,CLR,,0.01,WeatherDisplay:10.37,2013-05-26 17:11:00,
2013-05-26 13:16:00,68.8,52.5,30.25,NNW,339,0.0,0.0,56,0.00,CLR,,0.01,WeatherDisplay:10.37,2013-05-26 17:16:00,
2013-05-26 13:21:00,70.2,54.7,30.25,WSW,258,3.0,0.0,58,0.00,CLR,,0.01,WeatherDisplay:10.37,2013-05-26 17:21:00,
2013-05-26 13:26:00,68.8,52.5,30.25,NNW,339,0.0,0.0,56,0.00,CLR,,0.01,WeatherDisplay:10.37,2013-05-26 17:26:00,
2013-05-26 13:31:00,68.8,52.5,30.25,NNW,339,0.0,0.0,56,0.00,CLR,,0.01,WeatherDisplay:10.37,2013-05-26 17:31:00,
2013-05-26 13:36:00,70.5,50.4,30.24,East,100,4.0,4.0,49,0.00,CLR,,0.01,WeatherDisplay:10.37,2013-05-26 17:36:00,
2013-05-26 13:41:00,70.6,52.6,30.23,West,265,3.5,3.5,53,0.00,CLR,,0.01,WeatherDisplay:10.37,2013-05-26 17:41:00,
2013-05-26 13:46:00,70.5,50.4,30.24,East,99,3.5,3.6,49,0.00,CLR,,0.01,WeatherDisplay:10.37,2013-05-26 17:46:00,
2013-05-26 13:51:00,70.5,50.4,30.24,East,99,3.5,3.6,49,0.00,CLR,,0.01,WeatherDisplay:10.37,2013-05-26 17:51:00,
2013-05-26 13:56:00,70.5,50.4,30.24,East,99,3.5,3.6,49,0.00,CLR,,0.01,WeatherDisplay:10.37,2013-05-26 17:56:00,
2013-05-26 14:01:00,71.3,51.1,30.22,SW,215,9.2,9.2,49,0.00,CLR,,0.01,WeatherDisplay:10.37,2013-05-26 18:01:00,
2013-05-26 14:06:00,71.4,51.8,30.22,SW,234,6.0,6.0,50,0.00,CLR,,0.01,WeatherDisplay:10.37,2013-05-26 18:06:00,
2013-05-26 14:11:00,70.5,50.4,30.24,East,99,3.5,3.6,49,0.00,CLR,,0.01,WeatherDisplay:10.37,2013-05-26 18:11:00,
2013-05-26 14:16:00,72.0,54.4,30.21,West,272,10.4,10.4,54,0.00,CLR,,0.01,WeatherDisplay:10.37,2013-05-26 18:16:00,
2013-05-26 14:21:00,71.8,55.3,30.21,SSW,202,3.5,3.5,56,0.00,CLR,,0.01,WeatherDisplay:10.37,2013-05-26 18:21:00,
2013-05-26 14:26:00,71.8,55.3,30.21,SSW,202,3.5,3.5,56,0.00,CLR,,0.01,WeatherDisplay:10.37,2013-05-26 18:26:00,
2013-05-26 14:31:00,71.8,55.3,30.21,SSW,202,3.5,3.5,56,0.00,CLR,,0.01,WeatherDisplay:10.37,2013-05-26 18:31:00,
2013-05-26 14:36:00,71.8,55.3,30.21,SSW,202,3.5,3.5,56,0.00,CLR,,0.01,WeatherDisplay:10.37,2013-05-26 18:36:00,
2013-05-26 14:41:00,72.2,52.0,30.21,SW,217,6.9,6.9,49,0.00,CLR,,0.01,WeatherDisplay:10.37,2013-05-26 18:41:00,
2013-05-26 14:46:00,72.1,50.8,30.21,West,260,3.5,5.8,47,0.00,CLR,,0.01,WeatherDisplay:10.37,2013-05-26 18:46:00,
2013-05-26 14:51:00,72.6,52.9,30.20,SW,221,10.4,10.4,50,0.00,CLR,,0.01,WeatherDisplay:10.37,2013-05-26 18:51:00,
2013-05-26 14:56:00,72.7,51.3,30.20,SE,134,2.3,3.3,47,0.00,CLR,,0.01,WeatherDisplay:10.37,2013-05-26 18:56:00,
2013-05-26 15:01:00,72.7,51.3,30.20,SE,134,2.3,3.3,47,0.00,CLR,,0.01,WeatherDisplay:10.37,2013-05-26 19:01:00,
2013-05-26 15:06:00,73.1,54.4,30.20,WNW,303,3.5,3.5,52,0.00,CLR,,0.01,WeatherDisplay:10.37,2013-05-26 19:06:00,
2013-05-26 15:11:00,73.1,52.8,30.20,West,267,6.9,6.9,49,0.00,CLR,,0.01,WeatherDisplay:10.37,2013-05-26 19:11:00,
2013-05-26 15:16:00,73.0,53.3,30.20,SW,233,1.2,0.0,50,0.00,CLR,,0.01,WeatherDisplay:10.37,2013-05-26 19:16:00,
2013-05-26 15:21:00,72.7,51.3,30.20,SE,134,2.3,3.3,47,0.00,CLR,,0.01,WeatherDisplay:10.37,2013-05-26 19:21:00,
2013-05-26 15:26:00,73.3,53.5,30.20,West,260,6.9,7.6,50,0.00,CLR,,0.01,WeatherDisplay:10.37,2013-05-26 19:26:00,
2013-05-26 15:31:00,73.2,52.9,30.20,SW,236,11.5,11.5,49,0.00,CLR,,0.01,WeatherDisplay:10.37,2013-05-26 19:31:00,
2013-05-26 15:36:00,73.4,51.9,30.19,SW,214,6.9,6.9,47,0.00,CLR,,0.01,WeatherDisplay:10.37,2013-05-26 19:36:00,
2013-05-26 15:41:00,73.7,53.3,30.19,WSW,245,8.1,8.1,49,0.00,CLR,,0.01,WeatherDisplay:10.37,2013-05-26 19:41:00,
2013-05-26 15:46:00,73.7,51.0,30.19,SSW,201,6.9,6.9,45,0.00,CLR,,0.01,WeatherDisplay:10.37,2013-05-26 19:46:00,
2013-05-26 15:51:00,73.7,50.4,30.19,SSW,201,3.5,3.5,44,0.00,CLR,,0.01,WeatherDisplay:10.37,2013-05-26 19:51:00,
2013-05-26 15:56:00,73.7,50.4,30.19,SSW,201,3.5,3.5,44,0.00,CLR,,0.01,WeatherDisplay:10.37,2013-05-26 19:56:00,
2013-05-26 16:01:00,74.5,54.1,30.18,South,178,4.6,4.6,49,0.00,CLR,,0.01,WeatherDisplay:10.37,2013-05-26 20:01:00,
2013-05-26 16:06:00,74.4,54.5,30.18,West,271,8.1,8.1,50,0.00,CLR,,0.01,WeatherDisplay:10.37,2013-05-26 20:06:00,
2013-05-26 16:11:00,74.5,54.1,30.18,South,178,4.6,4.6,49,0.00,CLR,,0.01,WeatherDisplay:10.37,2013-05-26 20:11:00,
2013-05-26 16:16:00,74.5,54.1,30.18,South,178,4.6,4.6,49,0.00,CLR,,0.01,WeatherDisplay:10.37,2013-05-26 20:16:00,
2013-05-26 16:21:00,74.5,54.1,30.18,South,178,4.6,4.6,49,0.00,CLR,,0.01,WeatherDisplay:10.37,2013-05-26 20:21:00,
2013-05-26 16:26:00,74.6,53.0,30.18,West,263,4.6,4.6,47,0.00,CLR,,0.01,WeatherDisplay:10.37,2013-05-26 20:26:00,
2013-05-26 16:31:00,74.9,54.4,30.18,WSW,250,5.0,5.0,49,0.00,CLR,,0.01,WeatherDisplay:10.37,2013-05-26 20:31:00,
2013-05-26 16:36:00,74.5,54.1,30.18,South,178,4.6,4.6,49,0.00,CLR,,0.01,WeatherDisplay:10.37,2013-05-26 20:36:00,
2013-05-26 16:41:00,74.9,54.4,30.18,WSW,239,10.4,10.4,49,0.00,CLR,,0.01,WeatherDisplay:10.37,2013-05-26 20:41:00,
2013-05-26 16:46:00,74.5,54.1,30.18,South,178,4.6,4.6,49,0.00,CLR,,0.01,WeatherDisplay:10.37,2013-05-26 20:46:00,
2013-05-26 16:51:00,74.5,54.1,30.18,South,178,4.6,4.6,49,0.00,CLR,,0.01,WeatherDisplay:10.37,2013-05-26 20:51:00,
2013-05-26 16:56:00,75.5,56.6,30.17,South,178,4.6,4.6,52,0.00,CLR,,0.01,WeatherDisplay:10.37,2013-05-26 20:56:00,
2013-05-26 17:01:00,75.7,54.6,30.17,WSW,251,10.4,10.4,48,0.00,CLR,,0.01,WeatherDisplay:10.37,2013-05-26 21:01:00,
2013-05-26 17:06:00,75.3,53.7,30.17,SSW,206,9.2,9.2,47,0.00,CLR,,0.01,WeatherDisplay:10.37,2013-05-26 21:06:00,
2013-05-26 17:11:00,75.2,53.6,30.17,WSW,253,3.5,3.5,47,0.00,CLR,,0.01,WeatherDisplay:10.37,2013-05-26 21:11:00,
2013-05-26 17:16:00,75.1,52.9,30.17,WSW,239,3.5,3.5,46,0.00,CLR,,0.01,WeatherDisplay:10.37,2013-05-26 21:16:00,
2013-05-26 17:21:00,75.2,53.6,30.17,WSW,253,3.5,3.5,47,0.00,CLR,,0.01,WeatherDisplay:10.37,2013-05-26 21:21:00,
2013-05-26 17:26:00,75.7,55.2,30.17,West,262,3.5,3.5,49,0.00,CLR,,0.01,WeatherDisplay:10.37,2013-05-26 21:26:00,
2013-05-26 17:31:00,75.7,54.0,30.17,WSW,251,11.5,11.5,47,0.00,CLR,,0.01,WeatherDisplay:10.37,2013-05-26 21:31:00,
2013-05-26 17:36:00,75.6,52.8,30.17,SSE,164,0.0,0.7,45,0.00,CLR,,0.01,WeatherDisplay:10.37,2013-05-26 21:36:00,
2013-05-26 17:41:00,75.6,52.8,30.17,SSE,164,0.0,0.7,45,0.00,CLR,,0.01,WeatherDisplay:10.37,2013-05-26 21:41:00,
2013-05-26 17:46:00,75.8,54.1,30.16,SW,234,3.5,3.5,47,0.00,CLR,,0.01,WeatherDisplay:10.37,2013-05-26 21:46:00,
2013-05-26 17:51:00,75.6,52.8,30.17,SSE,164,0.0,0.7,45,0.00,CLR,,0.01,WeatherDisplay:10.37,2013-05-26 21:51:00,
2013-05-26 17:56:00,75.6,53.4,30.17,SSW,209,4.6,4.6,46,0.00,CLR,,0.01,WeatherDisplay:10.37,2013-05-26 21:56:00,
2013-05-26 18:01:00,75.6,53.4,30.17,SSW,209,4.6,4.6,46,0.00,CLR,,0.01,WeatherDisplay:10.37,2013-05-26 22:01:00,
2013-05-26 18:06:00,75.6,53.4,30.17,SSW,209,4.6,4.6,46,0.00,CLR,,0.01,WeatherDisplay:10.37,2013-05-26 22:06:00,
2013-05-26 18:11:00,73.8,55.6,30.17,WSW,257,0.0,0.0,53,0.00,CLR,,0.01,WeatherDisplay:10.37,2013-05-26 22:11:00,
2013-05-26 18:16:00,75.6,53.4,30.17,SSW,209,4.6,4.6,46,0.00,CLR,,0.01,WeatherDisplay:10.37,2013-05-26 22:16:00,
2013-05-26 18:21:00,73.4,55.2,30.17,West,267,3.5,0.0,53,0.00,CLR,,0.01,WeatherDisplay:10.37,2013-05-26 22:21:00,
2013-05-26 18:26:00,73.4,55.2,30.17,West,267,0.0,0.1,53,0.00,CLR,,0.01,WeatherDisplay:10.37,2013-05-26 22:26:00,
2013-05-26 18:31:00,73.5,54.8,30.17,West,267,3.5,3.5,52,0.00,CLR,,0.01,WeatherDisplay:10.37,2013-05-26 22:31:00,
2013-05-26 18:36:00,73.5,54.8,30.17,West,267,3.5,3.5,52,0.00,CLR,,0.01,WeatherDisplay:10.37,2013-05-26 22:36:00,
2013-05-26 18:41:00,73.2,55.0,30.16,SSW,209,0.0,0.0,53,0.00,CLR,,0.01,WeatherDisplay:10.37,2013-05-26 22:41:00,
2013-05-26 18:46:00,73.5,54.8,30.17,West,267,3.5,3.5,52,0.00,CLR,,0.01,WeatherDisplay:10.37,2013-05-26 22:46:00,
2013-05-26 18:51:00,73.5,54.8,30.17,West,267,3.5,3.5,52,0.00,CLR,,0.01,WeatherDisplay:10.37,2013-05-26 22:51:00,
2013-05-26 18:56:00,72.8,55.7,30.16,WNW,285,0.0,0.0,55,0.00,CLR,,0.01,WeatherDisplay:10.37,2013-05-26 22:56:00,
2013-05-26 19:01:00,72.7,54.6,30.17,West,273,2.3,2.3,53,0.00,CLR,,0.01,WeatherDisplay:10.37,2013-05-26 23:01:00,
2013-05-26 19:06:00,72.6,54.5,30.17,West,270,0.0,0.0,53,0.00,CLR,,0.01,WeatherDisplay:10.37,2013-05-26 23:06:00,
2013-05-26 19:11:00,72.9,54.8,30.16,WNW,286,0.0,0.0,53,0.00,CLR,,0.01,WeatherDisplay:10.37,2013-05-26 23:11:00,
2013-05-26 19:16:00,72.6,55.5,30.17,West,270,0.0,0.0,55,0.00,CLR,,0.01,WeatherDisplay:10.37,2013-05-26 23:16:00,
2013-05-26 19:21:00,72.7,56.1,30.17,West,269,0.0,0.0,56,0.00,CLR,,0.01,WeatherDisplay:10.37,2013-05-26 23:21:00,
2013-05-26 19:26:00,72.9,54.8,30.16,WNW,286,0.0,0.0,53,0.00,CLR,,0.01,WeatherDisplay:10.37,2013-05-26 23:26:00,
2013-05-26 19:31:00,73.0,55.4,30.17,West,270,0.0,0.0,54,0.00,CLR,,0.01,WeatherDisplay:10.37,2013-05-26 23:31:00,
2013-05-26 19:36:00,73.1,54.9,30.17,West,270,0.0,0.0,53,0.00,CLR,,0.01,WeatherDisplay:10.37,2013-05-26 23:36:00,
2013-05-26 19:41:00,73.2,55.6,30.17,West,270,0.0,0.0,54,0.00,CLR,,0.01,WeatherDisplay:10.37,2013-05-26 23:41:00,
2013-05-26 19:46:00,72.9,55.3,30.17,West,270,0.0,0.0,54,0.00,CLR,,0.01,WeatherDisplay:10.37,2013-05-26 23:46:00,
2013-05-26 19:51:00,73.3,55.1,30.17,West,269,0.0,0.0,53,0.00,CLR,,0.01,WeatherDisplay:10.37,2013-05-26 23:51:00,
2013-05-26 19:56:00,73.2,56.1,30.17,West,269,0.0,0.0,55,0.00,CLR,,0.01,WeatherDisplay:10.37,2013-05-26 23:56:00,
2013-05-26 20:01:00,72.9,55.3,30.17,West,270,0.0,0.0,54,0.00,CLR,,0.01,WeatherDisplay:10.37,2013-05-27 00:01:00,
2013-05-26 20:06:00,72.5,56.9,30.18,WNW,284,0.0,0.0,58,0.00,CLR,,0.01,WeatherDisplay:10.37,2013-05-27 00:06:00,
2013-05-26 20:11:00,72.9,55.3,30.17,West,270,0.0,0.0,54,0.00,CLR,,0.01,WeatherDisplay:10.37,2013-05-27 00:11:00,
2013-05-26 20:16:00,70.9,56.3,30.18,NNW,337,0.0,0.0,60,0.00,CLR,,0.01,WeatherDisplay:10.37,2013-05-27 00:16:00,
2013-05-26 20:21:00,70.2,56.6,30.18,NNW,337,0.0,0.0,62,0.00,CLR,,0.01,WeatherDisplay:10.37,2013-05-27 00:21:00,
2013-05-26 20:26:00,70.6,56.5,30.18,NNW,337,0.0,0.0,61,0.00,CLR,,0.01,WeatherDisplay:10.37,2013-05-27 00:26:00,
2013-05-26 20:31:00,69.4,56.3,30.18,NNW,337,0.0,0.0,63,0.00,CLR,,0.01,WeatherDisplay:10.37,2013-05-27 00:31:00,
2013-05-26 20:36:00,68.9,55.8,30.18,NNW,337,0.0,0.0,63,0.00,CLR,,0.01,WeatherDisplay:10.37,2013-05-27 00:36:00,
2013-05-26 20:41:00,70.6,56.5,30.18,NNW,337,0.0,0.0,61,0.00,CLR,,0.01,WeatherDisplay:10.37,2013-05-27 00:41:00,
2013-05-26 20:46:00,67.9,56.1,30.18,NNW,337,0.0,0.0,66,0.00,CLR,,0.01,WeatherDisplay:10.37,2013-05-27 00:46:00,
2013-05-26 20:51:00,70.6,56.5,30.18,NNW,337,0.0,0.0,61,0.00,CLR,,0.01,WeatherDisplay:10.37,2013-05-27 00:51:00,
2013-05-26 20:56:00,70.6,56.5,30.18,NNW,337,0.0,0.0,61,0.00,CLR,,0.01,WeatherDisplay:10.37,2013-05-27 00:56:00,
2013-05-26 21:01:00,70.6,56.5,30.18,NNW,337,0.0,0.0,61,0.00,CLR,,0.01,WeatherDisplay:10.37,2013-05-27 01:01:00,
2013-05-26 21:06:00,65.3,55.3,30.18,NNW,337,0.0,0.0,70,0.00,CLR,,0.01,WeatherDisplay:10.37,2013-05-27 01:06:00,
2013-05-26 21:11:00,70.6,56.5,30.18,NNW,337,0.0,0.0,61,0.00,CLR,,0.01,WeatherDisplay:10.37,2013-05-27 01:11:00,
2013-05-26 21:16:00,64.5,54.5,30.18,NNW,337,0.0,0.0,70,0.00,CLR,,0.01,WeatherDisplay:10.37,2013-05-27 01:16:00,
2013-05-26 21:21:00,64.2,54.6,30.18,NNW,337,0.0,0.0,71,0.00,CLR,,0.01,WeatherDisplay:10.37,2013-05-27 01:21:00,
2013-05-26 21:26:00,63.6,54.4,30.18,NNW,337,0.0,0.0,72,0.00,CLR,,0.01,WeatherDisplay:10.37,2013-05-27 01:26:00,
2013-05-26 21:31:00,64.2,54.6,30.18,NNW,337,0.0,0.0,71,0.00,CLR,,0.01,WeatherDisplay:10.37,2013-05-27 01:31:00,
2013-05-26 21:36:00,63.0,54.2,30.19,NNW,337,0.0,0.0,73,0.00,CLR,,0.01,WeatherDisplay:10.37,2013-05-27 01:36:00,
2013-05-26 21:41:00,64.2,54.6,30.18,NNW,337,0.0,0.0,71,0.00,CLR,,0.01,WeatherDisplay:10.37,2013-05-27 01:41:00,
2013-05-26 21:46:00,62.5,53.7,30.19,NNW,337,0.0,0.0,73,0.00,CLR,,0.01,WeatherDisplay:10.37,2013-05-27 01:46:00,
2013-05-26 21:51:00,62.3,53.9,30.19,NNW,337,0.0,0.0,74,0.00,CLR,,0.01,WeatherDisplay:10.37,2013-05-27 01:51:00,
2013-05-26 21:56:00,62.1,53.7,30.19,NNW,337,0.0,0.0,74,0.00,CLR,,0.01,WeatherDisplay:10.37,2013-05-27 01:56:00,
2013-05-26 22:01:00,61.9,53.5,30.19,NNW,337,0.0,0.0,74,0.00,CLR,,0.01,WeatherDisplay:10.37,2013-05-27 02:01:00,
2013-05-26 22:06:00,61.7,53.3,30.19,NNW,337,0.0,0.0,74,0.00,CLR,,0.01,WeatherDisplay:10.37,2013-05-27 02:06:00,
2013-05-26 22:11:00,62.2,53.8,30.19,NNW,337,0.0,0.0,74,0.00,CLR,,0.01,WeatherDisplay:10.37,2013-05-27 02:11:00,
2013-05-26 22:16:00,61.5,53.5,30.20,NNW,337,0.0,0.0,75,0.00,CLR,,0.01,WeatherDisplay:10.37,2013-05-27 02:16:00,
2013-05-26 22:21:00,62.2,53.8,30.19,NNW,337,0.0,0.0,74,0.00,CLR,,0.01,WeatherDisplay:10.37,2013-05-27 02:21:00,
2013-05-26 22:26:00,61.3,53.3,30.20,NNW,337,0.0,0.0,75,0.00,CLR,,0.01,WeatherDisplay:10.37,2013-05-27 02:26:00,
2013-05-26 22:31:00,62.2,53.8,30.19,NNW,337,0.0,0.0,74,0.00,CLR,,0.01,WeatherDisplay:10.37,2013-05-27 02:31:00,
2013-05-26 22:36:00,61.0,53.0,30.20,NNW,337,0.0,0.0,75,0.00,CLR,,0.01,WeatherDisplay:10.37,2013-05-27 02:36:00,
2013-05-26 22:41:00,60.9,52.9,30.20,NNW,337,0.0,0.0,75,0.00,CLR,,0.01,WeatherDisplay:10.37,2013-05-27 02:41:00,
2013-05-26 22:46:00,60.8,53.2,30.20,NNW,337,0.0,0.0,76,0.00,CLR,,0.01,WeatherDisplay:10.37,2013-05-27 02:46:00,
2013-05-26 22:51:00,60.9,52.9,30.20,NNW,337,0.0,0.0,75,0.00,CLR,,0.01,WeatherDisplay:10.37,2013-05-27 02:51:00,
2013-05-26 22:56:00,60.9,52.9,30.20,NNW,337,0.0,0.0,75,0.00,CLR,,0.01,WeatherDisplay:10.37,2013-05-27 02:56:00,
2013-05-26 23:01:00,60.9,52.9,30.20,NNW,337,0.0,0.0,75,0.00,CLR,,0.01,WeatherDisplay:10.37,2013-05-27 03:01:00,
2013-05-26 23:06:00,60.9,52.9,30.20,NNW,337,0.0,0.0,75,0.00,CLR,,0.01,WeatherDisplay:10.37,2013-05-27 03:06:00,
2013-05-26 23:11:00,60.9,52.9,30.20,NNW,337,0.0,0.0,75,0.00,CLR,,0.01,WeatherDisplay:10.37,2013-05-27 03:11:00,
2013-05-26 23:16:00,60.9,52.9,30.20,NNW,337,0.0,0.0,75,0.00,CLR,,0.01,WeatherDisplay:10.37,2013-05-27 03:16:00,
2013-05-26 23:21:00,60.1,53.2,30.20,NNW,337,0.0,0.0,78,0.00,CLR,,0.01,WeatherDisplay:10.37,2013-05-27 03:21:00,
2013-05-26 23:26:00,60.1,52.9,30.20,NNW,337,0.0,0.0,77,0.00,CLR,,0.01,WeatherDisplay:10.37,2013-05-27 03:26:00,
2013-05-26 23:31:00,60.1,52.9,30.20,NNW,337,0.0,0.0,77,0.00,CLR,,0.01,WeatherDisplay:10.37,2013-05-27 03:31:00,
2013-05-26 23:36:00,60.1,52.9,30.20,NNW,337,0.0,0.0,77,0.00,CLR,,0.01,WeatherDisplay:10.37,2013-05-27 03:36:00,
2013-05-26 23:41:00,60.1,52.9,30.20,NNW,337,0.0,0.0,77,0.00,CLR,,0.01,WeatherDisplay:10.37,2013-05-27 03:41:00,
2013-05-26 23:46:00,60.1,52.9,30.20,NNW,337,0.0,0.0,77,0.00,CLR,,0.01,WeatherDisplay:10.37,2013-05-27 03:46:00,
2013-05-26 23:51:00,59.6,52.7,30.20,NNW,337,0.0,0.0,78,0.00,CLR,,0.01,WeatherDisplay:10.37,2013-05-27 03:51:00,
2013-05-26 23:56:00,60.1,52.9,30.20,NNW,337,0.0,0.0,77,0.00,CLR,,0.01,WeatherDisplay:10.37,2013-05-27 03:56:00,